Location: Poprad
(49.0500°N, 20.3000°E)
Time: 18:40:10
(UTC+02:00)

RS-44 - Pass Details

Date: 24 April 2024
Orbit: 1174 x 1511 km, 82.5° (Epoch: 20 May)

Event Time Altitude Azimuth Distance (km) Brightness Sun altitude
Rises 21:06:10 0° 210° (SSW) 4,623 ? -12.4°
Reaches altitude 10° 21:09:16 10° 216° (SW) 3,626 ? -12.8°
Maximum altitude 21:17:38 48° 289° (WNW) 1,809 ? -13.8°
Drops below altitude 10° 21:25:35 10° 2° (N) 3,439 ? -14.8°
Sets 21:28:28 0° 9° (N) 4,368 ? -15.2°
